<?xml version="1.0" encoding="UTF-8" standalone="no" ?>
<gpx xmlns="http://www.topografix.com/GPX/1/1" xmlns:xsi="http://www.w3.org/2001/XMLSchema-instance" xsi:schemaLocation="http://www.topografix.com/GPX/1/1 http://www.topografix.com/GPX/1/1/gpx.xsd" version="1.1" creator="VisuGPX - https://www.visugpx.com">
  <metadata>
    <name>Mellac-Tremeven</name>
    <desc><![CDATA[Espace VTT FFC de Cornouaille - Circuit n°38 - Mellac et Circuit n°33 - Tréméven]]></desc>
  </metadata>
  <trk>
    <name><![CDATA[Mellac-Tremeven]]></name>
    <trkseg>
      <trkpt lat="47.90152" lon="-3.54678">
        <ele>21.9</ele>
      </trkpt>
      <trkpt lat="47.90194" lon="-3.54621">
        <ele>28</ele>
        <time>2005-06-20T11:28:47Z</time>
      </trkpt>
      <trkpt lat="47.90212" lon="-3.54598">
        <ele>32</ele>
        <time>2005-06-20T11:28:47Z</time>
      </trkpt>
      <trkpt lat="47.90223" lon="-3.54576">
        <ele>32</ele>
        <time>2005-06-20T11:28:47Z</time>
      </trkpt>
      <trkpt lat="47.90237" lon="-3.54551">
        <ele>35</ele>
        <time>2005-06-20T11:28:47Z</time>
      </trkpt>
      <trkpt lat="47.9025" lon="-3.54525">
        <ele>38</ele>
        <time>2005-06-20T11:28:47Z</time>
      </trkpt>
      <trkpt lat="47.90256" lon="-3.54526">
        <ele>41</ele>
        <time>2005-06-20T11:28:47Z</time>
      </trkpt>
      <trkpt lat="47.90251" lon="-3.54547">
        <ele>41</ele>
        <time>2005-06-20T11:28:47Z</time>
      </trkpt>
      <trkpt lat="47.90245" lon="-3.54567">
        <ele>40</ele>
        <time>2005-06-20T11:28:47Z</time>
      </trkpt>
      <trkpt lat="47.90245" lon="-3.54582">
        <ele>41</ele>
        <time>2005-06-20T11:28:47Z</time>
      </trkpt>
      <trkpt lat="47.90229" lon="-3.54604">
        <ele>37</ele>
        <time>2005-06-20T11:28:47Z</time>
      </trkpt>
      <trkpt lat="47.90219" lon="-3.54626">
        <ele>37</ele>
        <time>2005-06-20T11:28:47Z</time>
      </trkpt>
      <trkpt lat="47.90217" lon="-3.54637">
        <ele>37</ele>
        <time>2005-06-20T11:28:47Z</time>
      </trkpt>
      <trkpt lat="47.90219" lon="-3.54648">
        <ele>38</ele>
        <time>2005-06-20T11:28:47Z</time>
      </trkpt>
      <trkpt lat="47.90234" lon="-3.54638">
        <ele>41</ele>
        <time>2005-06-20T11:28:47Z</time>
      </trkpt>
      <trkpt lat="47.90247" lon="-3.54622">
        <ele>45</ele>
        <time>2005-06-20T11:28:47Z</time>
      </trkpt>
      <trkpt lat="47.90259" lon="-3.546">
        <ele>48</ele>
        <time>2005-06-20T11:28:47Z</time>
      </trkpt>
      <trkpt lat="47.90266" lon="-3.54584">
        <ele>50</ele>
        <time>2005-06-20T11:28:47Z</time>
      </trkpt>
      <trkpt lat="47.90272" lon="-3.5457">
        <ele>52</ele>
        <time>2005-06-20T11:28:47Z</time>
      </trkpt>
      <trkpt lat="47.90282" lon="-3.54566">
        <ele>54</ele>
        <time>2005-06-20T11:28:47Z</time>
      </trkpt>
      <trkpt lat="47.90287" lon="-3.54548">
        <ele>54</ele>
        <time>2005-06-20T11:28:47Z</time>
      </trkpt>
      <trkpt lat="47.9029" lon="-3.54538">
        <ele>53</ele>
        <time>2005-06-20T11:28:47Z</time>
      </trkpt>
      <trkpt lat="47.90308" lon="-3.54537">
        <ele>58</ele>
        <time>2005-06-20T11:28:47Z</time>
      </trkpt>
      <trkpt lat="47.90318" lon="-3.5454">
        <ele>60</ele>
        <time>2005-06-20T11:28:47Z</time>
      </trkpt>
      <trkpt lat="47.90327" lon="-3.54551">
        <ele>61</ele>
        <time>2005-06-20T11:28:47Z</time>
      </trkpt>
      <trkpt lat="47.90344" lon="-3.54553">
        <ele>62</ele>
        <time>2005-06-20T11:28:47Z</time>
      </trkpt>
      <trkpt lat="47.90371" lon="-3.54559">
        <ele>63</ele>
        <time>2005-06-20T11:28:47Z</time>
      </trkpt>
      <trkpt lat="47.90397" lon="-3.54567">
        <ele>64</ele>
        <time>2005-06-20T11:28:47Z</time>
      </trkpt>
      <trkpt lat="47.90416" lon="-3.54566">
        <ele>64</ele>
        <time>2005-06-20T11:28:47Z</time>
      </trkpt>
      <trkpt lat="47.90425" lon="-3.54557">
        <ele>64</ele>
        <time>2005-06-20T11:28:47Z</time>
      </trkpt>
      <trkpt lat="47.90446" lon="-3.54534">
        <ele>64</ele>
        <time>2005-06-20T11:28:47Z</time>
      </trkpt>
      <trkpt lat="47.90468" lon="-3.54525">
        <ele>64</ele>
        <time>2005-06-20T11:28:47Z</time>
      </trkpt>
      <trkpt lat="47.90493" lon="-3.54522">
        <ele>65</ele>
        <time>2005-06-20T11:28:47Z</time>
      </trkpt>
      <trkpt lat="47.90517" lon="-3.54502">
        <ele>65</ele>
        <time>2005-06-20T11:28:47Z</time>
      </trkpt>
      <trkpt lat="47.9054" lon="-3.54491">
        <ele>65</ele>
        <time>2005-06-20T11:28:47Z</time>
      </trkpt>
      <trkpt lat="47.90564" lon="-3.54487">
        <ele>65</ele>
        <time>2005-06-20T11:28:47Z</time>
      </trkpt>
      <trkpt lat="47.90595" lon="-3.54488">
        <ele>66</ele>
        <time>2005-06-20T11:28:47Z</time>
      </trkpt>
      <trkpt lat="47.90604" lon="-3.54464">
        <ele>66</ele>
        <time>2005-06-20T11:28:47Z</time>
      </trkpt>
      <trkpt lat="47.90608" lon="-3.5444">
        <ele>66</ele>
        <time>2005-06-20T11:28:47Z</time>
      </trkpt>
      <trkpt lat="47.90608" lon="-3.54413">
        <ele>65</ele>
        <time>2005-06-20T11:28:47Z</time>
      </trkpt>
      <trkpt lat="47.90604" lon="-3.54385">
        <ele>64</ele>
        <time>2005-06-20T11:28:47Z</time>
      </trkpt>
      <trkpt lat="47.90606" lon="-3.5435">
        <ele>63</ele>
        <time>2005-06-20T11:28:47Z</time>
      </trkpt>
      <trkpt lat="47.90608" lon="-3.54307">
        <ele>62</ele>
        <time>2005-06-20T11:28:47Z</time>
      </trkpt>
      <trkpt lat="47.90616" lon="-3.54276">
        <ele>62</ele>
        <time>2005-06-20T11:28:47Z</time>
      </trkpt>
      <trkpt lat="47.90621" lon="-3.54226">
        <ele>62</ele>
        <time>2005-06-20T11:28:47Z</time>
      </trkpt>
      <trkpt lat="47.90612" lon="-3.54188">
        <ele>63</ele>
        <time>2005-06-20T11:28:47Z</time>
      </trkpt>
      <trkpt lat="47.90598" lon="-3.54162">
        <ele>63</ele>
        <time>2005-06-20T11:28:47Z</time>
      </trkpt>
      <trkpt lat="47.90596" lon="-3.54118">
        <ele>65</ele>
        <time>2005-06-20T11:28:47Z</time>
      </trkpt>
      <trkpt lat="47.90594" lon="-3.54093">
        <ele>65</ele>
        <time>2005-06-20T11:28:47Z</time>
      </trkpt>
      <trkpt lat="47.90597" lon="-3.54046">
        <ele>66</ele>
        <time>2005-06-20T11:28:47Z</time>
      </trkpt>
      <trkpt lat="47.90616" lon="-3.54025">
        <ele>67</ele>
        <time>2005-06-20T11:28:47Z</time>
      </trkpt>
      <trkpt lat="47.90638" lon="-3.54">
        <ele>68</ele>
        <time>2005-06-20T11:28:47Z</time>
      </trkpt>
      <trkpt lat="47.90654" lon="-3.53989">
        <ele>70</ele>
        <time>2005-06-20T11:28:47Z</time>
      </trkpt>
      <trkpt lat="47.90658" lon="-3.53956">
        <ele>70</ele>
        <time>2005-06-20T11:28:47Z</time>
      </trkpt>
      <trkpt lat="47.90682" lon="-3.53958">
        <ele>71</ele>
        <time>2005-06-20T11:28:47Z</time>
      </trkpt>
      <trkpt lat="47.90691" lon="-3.53959">
        <ele>72</ele>
        <time>2005-06-20T11:28:47Z</time>
      </trkpt>
      <trkpt lat="47.90706" lon="-3.53953">
        <ele>73</ele>
        <time>2005-06-20T11:28:47Z</time>
      </trkpt>
      <trkpt lat="47.90728" lon="-3.53955">
        <ele>74</ele>
        <time>2005-06-20T11:28:47Z</time>
      </trkpt>
      <trkpt lat="47.90722" lon="-3.53921">
        <ele>74</ele>
        <time>2005-06-20T11:28:47Z</time>
      </trkpt>
      <trkpt lat="47.90716" lon="-3.53875">
        <ele>74</ele>
        <time>2005-06-20T11:28:47Z</time>
      </trkpt>
      <trkpt lat="47.90714" lon="-3.53833">
        <ele>75</ele>
        <time>2005-06-20T11:28:47Z</time>
      </trkpt>
      <trkpt lat="47.90708" lon="-3.53799">
        <ele>75</ele>
        <time>2005-06-20T11:28:47Z</time>
      </trkpt>
      <trkpt lat="47.90708" lon="-3.5376">
        <ele>75</ele>
        <time>2005-06-20T11:28:47Z</time>
      </trkpt>
      <trkpt lat="47.90706" lon="-3.53725">
        <ele>74</ele>
        <time>2005-06-20T11:28:47Z</time>
      </trkpt>
      <trkpt lat="47.90697" lon="-3.53673">
        <ele>72</ele>
        <time>2005-06-20T11:28:47Z</time>
      </trkpt>
      <trkpt lat="47.90699" lon="-3.53637">
        <ele>70</ele>
        <time>2005-06-20T11:28:47Z</time>
      </trkpt>
      <trkpt lat="47.90688" lon="-3.53609">
        <ele>68</ele>
        <time>2005-06-20T11:28:47Z</time>
      </trkpt>
      <trkpt lat="47.90666" lon="-3.53576">
        <ele>70</ele>
        <time>2005-06-20T11:28:47Z</time>
      </trkpt>
      <trkpt lat="47.90647" lon="-3.5356">
        <ele>71</ele>
        <time>2005-06-20T11:28:47Z</time>
      </trkpt>
      <trkpt lat="47.90629" lon="-3.53522">
        <ele>73</ele>
        <time>2005-06-20T11:28:47Z</time>
      </trkpt>
      <trkpt lat="47.90612" lon="-3.53476">
        <ele>75</ele>
        <time>2005-06-20T11:28:47Z</time>
      </trkpt>
      <trkpt lat="47.90591" lon="-3.53433">
        <ele>76</ele>
        <time>2005-06-20T11:28:47Z</time>
      </trkpt>
      <trkpt lat="47.90576" lon="-3.53385">
        <ele>77</ele>
        <time>2005-06-20T11:28:47Z</time>
      </trkpt>
      <trkpt lat="47.90575" lon="-3.53343">
        <ele>78</ele>
        <time>2005-06-20T11:28:47Z</time>
      </trkpt>
      <trkpt lat="47.90577" lon="-3.53306">
        <ele>79</ele>
        <time>2005-06-20T11:28:47Z</time>
      </trkpt>
      <trkpt lat="47.90579" lon="-3.53254">
        <ele>80</ele>
        <time>2005-06-20T11:28:47Z</time>
      </trkpt>
      <trkpt lat="47.9053" lon="-3.53247">
        <ele>78</ele>
        <time>2005-06-20T11:28:47Z</time>
      </trkpt>
      <trkpt lat="47.90495" lon="-3.53232">
        <ele>79</ele>
        <time>2005-06-20T11:28:47Z</time>
      </trkpt>
      <trkpt lat="47.90466" lon="-3.53218">
        <ele>79</ele>
        <time>2005-06-20T11:28:47Z</time>
      </trkpt>
      <trkpt lat="47.9044" lon="-3.532">
        <ele>78</ele>
        <time>2005-06-20T11:28:47Z</time>
      </trkpt>
      <trkpt lat="47.90406" lon="-3.53163">
        <ele>79</ele>
        <time>2005-06-20T11:28:47Z</time>
      </trkpt>
      <trkpt lat="47.90379" lon="-3.53142">
        <ele>79</ele>
        <time>2005-06-20T11:28:47Z</time>
      </trkpt>
      <trkpt lat="47.90333" lon="-3.5313">
        <ele>79</ele>
        <time>2005-06-20T11:28:47Z</time>
      </trkpt>
      <trkpt lat="47.90288" lon="-3.53126">
        <ele>75</ele>
        <time>2005-06-20T11:28:47Z</time>
      </trkpt>
      <trkpt lat="47.90248" lon="-3.53129">
        <ele>68</ele>
        <time>2005-06-20T11:28:47Z</time>
      </trkpt>
      <trkpt lat="47.90215" lon="-3.53127">
        <ele>62</ele>
        <time>2005-06-20T11:28:47Z</time>
      </trkpt>
      <trkpt lat="47.90193" lon="-3.53124">
        <ele>61</ele>
        <time>2005-06-20T11:28:47Z</time>
      </trkpt>
      <trkpt lat="47.90193" lon="-3.53124">
        <ele>61</ele>
        <time>2005-06-20T11:28:47Z</time>
      </trkpt>
      <trkpt lat="47.9015" lon="-3.5314">
        <ele>62</ele>
        <time>2005-06-20T11:28:47Z</time>
      </trkpt>
      <trkpt lat="47.90109" lon="-3.5315">
        <ele>67</ele>
        <time>2005-06-20T11:28:47Z</time>
      </trkpt>
      <trkpt lat="47.90111" lon="-3.53117">
        <ele>69</ele>
        <time>2005-06-20T11:28:47Z</time>
      </trkpt>
      <trkpt lat="47.90115" lon="-3.53082">
        <ele>73</ele>
        <time>2005-06-20T11:28:47Z</time>
      </trkpt>
      <trkpt lat="47.90116" lon="-3.53037">
        <ele>76</ele>
        <time>2005-06-20T11:28:47Z</time>
      </trkpt>
      <trkpt lat="47.9012" lon="-3.5297">
        <ele>78</ele>
        <time>2005-06-20T11:28:47Z</time>
      </trkpt>
      <trkpt lat="47.9013" lon="-3.52903">
        <ele>77</ele>
        <time>2005-06-20T11:28:47Z</time>
      </trkpt>
      <trkpt lat="47.90136" lon="-3.52848">
        <ele>77</ele>
        <time>2005-06-20T11:28:47Z</time>
      </trkpt>
      <trkpt lat="47.90137" lon="-3.52798">
        <ele>78</ele>
        <time>2005-06-20T11:28:47Z</time>
      </trkpt>
      <trkpt lat="47.9014" lon="-3.52743">
        <ele>78</ele>
        <time>2005-06-20T11:28:47Z</time>
      </trkpt>
      <trkpt lat="47.90142" lon="-3.52698">
        <ele>79</ele>
        <time>2005-06-20T11:28:47Z</time>
      </trkpt>
      <trkpt lat="47.90133" lon="-3.52625">
        <ele>81</ele>
        <time>2005-06-20T11:28:47Z</time>
      </trkpt>
      <trkpt lat="47.90122" lon="-3.52515">
        <ele>80</ele>
        <time>2005-06-20T11:28:47Z</time>
      </trkpt>
      <trkpt lat="47.9011" lon="-3.52423">
        <ele>77</ele>
        <time>2005-06-20T11:28:47Z</time>
      </trkpt>
      <trkpt lat="47.90103" lon="-3.52367">
        <ele>75</ele>
        <time>2005-06-20T11:28:47Z</time>
      </trkpt>
      <trkpt lat="47.90083" lon="-3.52349">
        <ele>75</ele>
        <time>2005-06-20T11:28:47Z</time>
      </trkpt>
      <trkpt lat="47.90063" lon="-3.5235">
        <ele>76</ele>
        <time>2005-06-20T11:28:47Z</time>
      </trkpt>
      <trkpt lat="47.90051" lon="-3.52311">
        <ele>75</ele>
        <time>2005-06-20T11:28:47Z</time>
      </trkpt>
      <trkpt lat="47.90035" lon="-3.52253">
        <ele>77</ele>
        <time>2005-06-20T11:28:47Z</time>
      </trkpt>
      <trkpt lat="47.90028" lon="-3.52216">
        <ele>78</ele>
        <time>2005-06-20T11:28:47Z</time>
      </trkpt>
      <trkpt lat="47.90027" lon="-3.52202">
        <ele>78</ele>
        <time>2005-06-20T11:28:47Z</time>
      </trkpt>
      <trkpt lat="47.90046" lon="-3.52184">
        <ele>78</ele>
        <time>2005-06-20T11:28:47Z</time>
      </trkpt>
      <trkpt lat="47.90073" lon="-3.52167">
        <ele>77</ele>
        <time>2005-06-20T11:28:47Z</time>
      </trkpt>
      <trkpt lat="47.901" lon="-3.52148">
        <ele>77</ele>
        <time>2005-06-20T11:28:47Z</time>
      </trkpt>
      <trkpt lat="47.90123" lon="-3.52129">
        <ele>77</ele>
        <time>2005-06-20T11:28:47Z</time>
      </trkpt>
      <trkpt lat="47.90155" lon="-3.52111">
        <ele>77</ele>
        <time>2005-06-20T11:28:47Z</time>
      </trkpt>
      <trkpt lat="47.90147" lon="-3.52065">
        <ele>78</ele>
        <time>2005-06-20T11:28:47Z</time>
      </trkpt>
      <trkpt lat="47.90141" lon="-3.52017">
        <ele>79</ele>
        <time>2005-06-20T11:28:47Z</time>
      </trkpt>
      <trkpt lat="47.90142" lon="-3.51967">
        <ele>80</ele>
        <time>2005-06-20T11:28:47Z</time>
      </trkpt>
      <trkpt lat="47.90161" lon="-3.51939">
        <ele>81</ele>
        <time>2005-06-20T11:28:47Z</time>
      </trkpt>
      <trkpt lat="47.90186" lon="-3.51913">
        <ele>82</ele>
        <time>2005-06-20T11:28:47Z</time>
      </trkpt>
      <trkpt lat="47.90221" lon="-3.51884">
        <ele>82</ele>
        <time>2005-06-20T11:28:47Z</time>
      </trkpt>
      <trkpt lat="47.90213" lon="-3.51822">
        <ele>84</ele>
        <time>2005-06-20T11:28:47Z</time>
      </trkpt>
      <trkpt lat="47.90208" lon="-3.5175">
        <ele>85</ele>
        <time>2005-06-20T11:28:47Z</time>
      </trkpt>
      <trkpt lat="47.90194" lon="-3.51693">
        <ele>84</ele>
        <time>2005-06-20T11:28:47Z</time>
      </trkpt>
      <trkpt lat="47.90194" lon="-3.51664">
        <ele>83</ele>
        <time>2005-06-20T11:28:47Z</time>
      </trkpt>
      <trkpt lat="47.90191" lon="-3.5161">
        <ele>81</ele>
        <time>2005-06-20T11:28:47Z</time>
      </trkpt>
      <trkpt lat="47.90188" lon="-3.5155">
        <ele>80</ele>
        <time>2005-06-20T11:28:47Z</time>
      </trkpt>
      <trkpt lat="47.90193" lon="-3.51503">
        <ele>80</ele>
        <time>2005-06-20T11:28:47Z</time>
      </trkpt>
      <trkpt lat="47.90198" lon="-3.51453">
        <ele>80</ele>
        <time>2005-06-20T11:28:47Z</time>
      </trkpt>
      <trkpt lat="47.90205" lon="-3.51391">
        <ele>80</ele>
        <time>2005-06-20T11:28:47Z</time>
      </trkpt>
      <trkpt lat="47.9021" lon="-3.51306">
        <ele>82</ele>
        <time>2005-06-20T11:28:47Z</time>
      </trkpt>
      <trkpt lat="47.90214" lon="-3.51239">
        <ele>83</ele>
        <time>2005-06-20T11:28:47Z</time>
      </trkpt>
      <trkpt lat="47.90212" lon="-3.51185">
        <ele>83</ele>
        <time>2005-06-20T11:28:47Z</time>
      </trkpt>
      <trkpt lat="47.90212" lon="-3.5115">
        <ele>84</ele>
        <time>2005-06-20T11:28:47Z</time>
      </trkpt>
      <trkpt lat="47.90219" lon="-3.51114">
        <ele>84</ele>
        <time>2005-06-20T11:28:47Z</time>
      </trkpt>
      <trkpt lat="47.90216" lon="-3.51036">
        <ele>84</ele>
        <time>2005-06-20T11:28:47Z</time>
      </trkpt>
      <trkpt lat="47.90229" lon="-3.50974">
        <ele>84</ele>
        <time>2005-06-20T11:28:47Z</time>
      </trkpt>
      <trkpt lat="47.90237" lon="-3.50921">
        <ele>84</ele>
        <time>2005-06-20T11:28:47Z</time>
      </trkpt>
      <trkpt lat="47.90246" lon="-3.5087">
        <ele>83</ele>
        <time>2005-06-20T11:28:47Z</time>
      </trkpt>
      <trkpt lat="47.90241" lon="-3.50818">
        <ele>82</ele>
        <time>2005-06-20T11:28:47Z</time>
      </trkpt>
      <trkpt lat="47.90238" lon="-3.50761">
        <ele>79</ele>
        <time>2005-06-20T11:28:47Z</time>
      </trkpt>
      <trkpt lat="47.90231" lon="-3.5074">
        <ele>78</ele>
        <time>2005-06-20T11:28:47Z</time>
      </trkpt>
      <trkpt lat="47.90199" lon="-3.50709">
        <ele>75</ele>
        <time>2005-06-20T11:28:47Z</time>
      </trkpt>
      <trkpt lat="47.90178" lon="-3.50677">
        <ele>74</ele>
        <time>2005-06-20T11:28:47Z</time>
      </trkpt>
      <trkpt lat="47.90149" lon="-3.50652">
        <ele>73</ele>
        <time>2005-06-20T11:28:47Z</time>
      </trkpt>
      <trkpt lat="47.90123" lon="-3.50635">
        <ele>72</ele>
        <time>2005-06-20T11:28:47Z</time>
      </trkpt>
      <trkpt lat="47.90095" lon="-3.50641">
        <ele>69</ele>
        <time>2005-06-20T11:28:47Z</time>
      </trkpt>
      <trkpt lat="47.90096" lon="-3.50678">
        <ele>69</ele>
        <time>2005-06-20T11:28:47Z</time>
      </trkpt>
      <trkpt lat="47.90097" lon="-3.50738">
        <ele>68</ele>
        <time>2005-06-20T11:28:47Z</time>
      </trkpt>
      <trkpt lat="47.901" lon="-3.50817">
        <ele>69</ele>
        <time>2005-06-20T11:28:47Z</time>
      </trkpt>
      <trkpt lat="47.90094" lon="-3.50877">
        <ele>69</ele>
        <time>2005-06-20T11:28:47Z</time>
      </trkpt>
      <trkpt lat="47.90072" lon="-3.50945">
        <ele>69</ele>
        <time>2005-06-20T11:28:47Z</time>
      </trkpt>
      <trkpt lat="47.90055" lon="-3.51013">
        <ele>70</ele>
        <time>2005-06-20T11:28:47Z</time>
      </trkpt>
      <trkpt lat="47.90047" lon="-3.51068">
        <ele>71</ele>
        <time>2005-06-20T11:28:47Z</time>
      </trkpt>
      <trkpt lat="47.90042" lon="-3.51116">
        <ele>71</ele>
        <time>2005-06-20T11:28:47Z</time>
      </trkpt>
      <trkpt lat="47.90037" lon="-3.51159">
        <ele>69</ele>
        <time>2005-06-20T11:28:47Z</time>
      </trkpt>
      <trkpt lat="47.90043" lon="-3.51218">
        <ele>68</ele>
        <time>2005-06-20T11:28:47Z</time>
      </trkpt>
      <trkpt lat="47.90051" lon="-3.51303">
        <ele>66</ele>
        <time>2005-06-20T11:28:47Z</time>
      </trkpt>
      <trkpt lat="47.90063" lon="-3.5138">
        <ele>68</ele>
        <time>2005-06-20T11:28:47Z</time>
      </trkpt>
      <trkpt lat="47.90048" lon="-3.51386">
        <ele>68</ele>
        <time>2005-06-20T11:28:47Z</time>
      </trkpt>
      <trkpt lat="47.90033" lon="-3.51417">
        <ele>69</ele>
        <time>2005-06-20T11:28:47Z</time>
      </trkpt>
      <trkpt lat="47.90025" lon="-3.51436">
        <ele>69</ele>
        <time>2005-06-20T11:28:47Z</time>
      </trkpt>
      <trkpt lat="47.90017" lon="-3.51455">
        <ele>70</ele>
        <time>2005-06-20T11:28:47Z</time>
      </trkpt>
      <trkpt lat="47.90002" lon="-3.51474">
        <ele>72</ele>
        <time>2005-06-20T11:28:47Z</time>
      </trkpt>
      <trkpt lat="47.89984" lon="-3.51497">
        <ele>73</ele>
        <time>2005-06-20T11:28:47Z</time>
      </trkpt>
      <trkpt lat="47.89965" lon="-3.51506">
        <ele>73</ele>
        <time>2005-06-20T11:28:47Z</time>
      </trkpt>
      <trkpt lat="47.89943" lon="-3.51506">
        <ele>74</ele>
        <time>2005-06-20T11:28:47Z</time>
      </trkpt>
      <trkpt lat="47.89929" lon="-3.51499">
        <ele>75</ele>
        <time>2005-06-20T11:28:47Z</time>
      </trkpt>
      <trkpt lat="47.89918" lon="-3.51486">
        <ele>77</ele>
        <time>2005-06-20T11:28:47Z</time>
      </trkpt>
      <trkpt lat="47.89894" lon="-3.51488">
        <ele>79</ele>
        <time>2005-06-20T11:28:47Z</time>
      </trkpt>
      <trkpt lat="47.89874" lon="-3.51486">
        <ele>80</ele>
        <time>2005-06-20T11:28:47Z</time>
      </trkpt>
      <trkpt lat="47.89851" lon="-3.51469">
        <ele>83</ele>
        <time>2005-06-20T11:28:47Z</time>
      </trkpt>
      <trkpt lat="47.89828" lon="-3.51454">
        <ele>85</ele>
        <time>2005-06-20T11:28:47Z</time>
      </trkpt>
      <trkpt lat="47.89804" lon="-3.51458">
        <ele>86</ele>
        <time>2005-06-20T11:28:47Z</time>
      </trkpt>
      <trkpt lat="47.89779" lon="-3.51469">
        <ele>88</ele>
        <time>2005-06-20T11:28:47Z</time>
      </trkpt>
      <trkpt lat="47.89756" lon="-3.5148">
        <ele>89</ele>
        <time>2005-06-20T11:28:47Z</time>
      </trkpt>
      <trkpt lat="47.89728" lon="-3.51494">
        <ele>90</ele>
        <time>2005-06-20T11:28:47Z</time>
      </trkpt>
      <trkpt lat="47.89701" lon="-3.51496">
        <ele>92</ele>
        <time>2005-06-20T11:28:47Z</time>
      </trkpt>
      <trkpt lat="47.89658" lon="-3.51513">
        <ele>92</ele>
        <time>2005-06-20T11:28:47Z</time>
      </trkpt>
      <trkpt lat="47.89622" lon="-3.5152">
        <ele>92</ele>
        <time>2005-06-20T11:28:47Z</time>
      </trkpt>
      <trkpt lat="47.89595" lon="-3.51531">
        <ele>92</ele>
        <time>2005-06-20T11:28:47Z</time>
      </trkpt>
      <trkpt lat="47.89566" lon="-3.51546">
        <ele>92</ele>
        <time>2005-06-20T11:28:47Z</time>
      </trkpt>
      <trkpt lat="47.89561" lon="-3.51569">
        <ele>92</ele>
        <time>2005-06-20T11:28:47Z</time>
      </trkpt>
      <trkpt lat="47.89575" lon="-3.51658">
        <ele>95</ele>
        <time>2005-06-20T11:28:47Z</time>
      </trkpt>
      <trkpt lat="47.89587" lon="-3.51713">
        <ele>96</ele>
        <time>2005-06-20T11:28:47Z</time>
      </trkpt>
      <trkpt lat="47.8959" lon="-3.51755">
        <ele>97</ele>
        <time>2005-06-20T11:28:47Z</time>
      </trkpt>
      <trkpt lat="47.89595" lon="-3.51801">
        <ele>96</ele>
        <time>2005-06-20T11:28:47Z</time>
      </trkpt>
      <trkpt lat="47.896" lon="-3.51855">
        <ele>95</ele>
        <time>2005-06-20T11:28:47Z</time>
      </trkpt>
      <trkpt lat="47.89599" lon="-3.51913">
        <ele>94</ele>
        <time>2005-06-20T11:28:47Z</time>
      </trkpt>
      <trkpt lat="47.89575" lon="-3.51931">
        <ele>94</ele>
        <time>2005-06-20T11:28:47Z</time>
      </trkpt>
      <trkpt lat="47.89553" lon="-3.51953">
        <ele>93</ele>
        <time>2005-06-20T11:28:47Z</time>
      </trkpt>
      <trkpt lat="47.8951" lon="-3.51971">
        <ele>91</ele>
        <time>2005-06-20T11:28:47Z</time>
      </trkpt>
      <trkpt lat="47.8948" lon="-3.51981">
        <ele>89</ele>
        <time>2005-06-20T11:28:47Z</time>
      </trkpt>
      <trkpt lat="47.89457" lon="-3.5199">
        <ele>88</ele>
        <time>2005-06-20T11:28:47Z</time>
      </trkpt>
      <trkpt lat="47.89442" lon="-3.51997">
        <ele>87</ele>
        <time>2005-06-20T11:28:47Z</time>
      </trkpt>
      <trkpt lat="47.89389" lon="-3.51999">
        <ele>83</ele>
        <time>2005-06-20T11:28:47Z</time>
      </trkpt>
      <trkpt lat="47.89352" lon="-3.51995">
        <ele>81</ele>
        <time>2005-06-20T11:28:47Z</time>
      </trkpt>
      <trkpt lat="47.89299" lon="-3.51999">
        <ele>76</ele>
        <time>2005-06-20T11:28:47Z</time>
      </trkpt>
      <trkpt lat="47.89277" lon="-3.52007">
        <ele>75</ele>
        <time>2005-06-20T11:28:47Z</time>
      </trkpt>
      <trkpt lat="47.89266" lon="-3.52">
        <ele>75</ele>
        <time>2005-06-20T11:28:47Z</time>
      </trkpt>
      <trkpt lat="47.89261" lon="-3.51991">
        <ele>76</ele>
        <time>2005-06-20T11:28:47Z</time>
      </trkpt>
      <trkpt lat="47.89262" lon="-3.51938">
        <ele>78</ele>
        <time>2005-06-20T11:28:47Z</time>
      </trkpt>
      <trkpt lat="47.89249" lon="-3.51869">
        <ele>78</ele>
        <time>2005-06-20T11:28:47Z</time>
      </trkpt>
      <trkpt lat="47.89233" lon="-3.51781">
        <ele>76</ele>
        <time>2005-06-20T11:28:47Z</time>
      </trkpt>
      <trkpt lat="47.89223" lon="-3.51707">
        <ele>75</ele>
        <time>2005-06-20T11:28:47Z</time>
      </trkpt>
      <trkpt lat="47.89216" lon="-3.5166">
        <ele>74</ele>
        <time>2005-06-20T11:28:47Z</time>
      </trkpt>
      <trkpt lat="47.89206" lon="-3.51583">
        <ele>72</ele>
        <time>2005-06-20T11:28:47Z</time>
      </trkpt>
      <trkpt lat="47.89195" lon="-3.51548">
        <ele>71</ele>
        <time>2005-06-20T11:28:47Z</time>
      </trkpt>
      <trkpt lat="47.89203" lon="-3.51529">
        <ele>71</ele>
        <time>2005-06-20T11:28:47Z</time>
      </trkpt>
      <trkpt lat="47.89223" lon="-3.51533">
        <ele>72</ele>
        <time>2005-06-20T11:28:47Z</time>
      </trkpt>
      <trkpt lat="47.89275" lon="-3.51542">
        <ele>75</ele>
        <time>2005-06-20T11:28:47Z</time>
      </trkpt>
      <trkpt lat="47.89332" lon="-3.5156">
        <ele>80</ele>
        <time>2005-06-20T11:28:47Z</time>
      </trkpt>
      <trkpt lat="47.89364" lon="-3.5156">
        <ele>82</ele>
        <time>2005-06-20T11:28:47Z</time>
      </trkpt>
      <trkpt lat="47.89377" lon="-3.51495">
        <ele>86</ele>
        <time>2005-06-20T11:28:47Z</time>
      </trkpt>
      <trkpt lat="47.89393" lon="-3.51428">
        <ele>87</ele>
        <time>2005-06-20T11:28:47Z</time>
      </trkpt>
      <trkpt lat="47.89405" lon="-3.51384">
        <ele>87</ele>
        <time>2005-06-20T11:28:47Z</time>
      </trkpt>
      <trkpt lat="47.8941" lon="-3.51353">
        <ele>87</ele>
        <time>2005-06-20T11:28:47Z</time>
      </trkpt>
      <trkpt lat="47.8941" lon="-3.51312">
        <ele>87</ele>
        <time>2005-06-20T11:28:47Z</time>
      </trkpt>
      <trkpt lat="47.89413" lon="-3.51256">
        <ele>87</ele>
        <time>2005-06-20T11:28:47Z</time>
      </trkpt>
      <trkpt lat="47.89417" lon="-3.51208">
        <ele>88</ele>
        <time>2005-06-20T11:28:47Z</time>
      </trkpt>
      <trkpt lat="47.89433" lon="-3.51122">
        <ele>89</ele>
        <time>2005-06-20T11:28:47Z</time>
      </trkpt>
      <trkpt lat="47.89449" lon="-3.51079">
        <ele>89</ele>
        <time>2005-06-20T11:28:47Z</time>
      </trkpt>
      <trkpt lat="47.89454" lon="-3.51026">
        <ele>88</ele>
        <time>2005-06-20T11:28:47Z</time>
      </trkpt>
      <trkpt lat="47.89468" lon="-3.51005">
        <ele>88</ele>
        <time>2005-06-20T11:28:47Z</time>
      </trkpt>
      <trkpt lat="47.89511" lon="-3.5101">
        <ele>89</ele>
        <time>2005-06-20T11:28:47Z</time>
      </trkpt>
      <trkpt lat="47.89556" lon="-3.51012">
        <ele>90</ele>
        <time>2005-06-20T11:28:47Z</time>
      </trkpt>
      <trkpt lat="47.89594" lon="-3.51009">
        <ele>90</ele>
        <time>2005-06-20T11:28:47Z</time>
      </trkpt>
      <trkpt lat="47.89625" lon="-3.51004">
        <ele>91</ele>
        <time>2005-06-20T11:28:47Z</time>
      </trkpt>
      <trkpt lat="47.89625" lon="-3.50941">
        <ele>89</ele>
        <time>2005-06-20T11:28:47Z</time>
      </trkpt>
      <trkpt lat="47.8963" lon="-3.50886">
        <ele>88</ele>
        <time>2005-06-20T11:28:47Z</time>
      </trkpt>
      <trkpt lat="47.89633" lon="-3.50826">
        <ele>87</ele>
        <time>2005-06-20T11:28:47Z</time>
      </trkpt>
      <trkpt lat="47.89643" lon="-3.5078">
        <ele>87</ele>
        <time>2005-06-20T11:28:47Z</time>
      </trkpt>
      <trkpt lat="47.89648" lon="-3.50767">
        <ele>86</ele>
        <time>2005-06-20T11:28:47Z</time>
      </trkpt>
      <trkpt lat="47.89612" lon="-3.50728">
        <ele>86</ele>
        <time>2005-06-20T11:28:47Z</time>
      </trkpt>
      <trkpt lat="47.89559" lon="-3.50695">
        <ele>86</ele>
        <time>2005-06-20T11:28:47Z</time>
      </trkpt>
      <trkpt lat="47.89518" lon="-3.50681">
        <ele>86</ele>
        <time>2005-06-20T11:28:47Z</time>
      </trkpt>
      <trkpt lat="47.89489" lon="-3.50683">
        <ele>85</ele>
        <time>2005-06-20T11:28:47Z</time>
      </trkpt>
      <trkpt lat="47.89495" lon="-3.50722">
        <ele>84</ele>
        <time>2005-06-20T11:28:47Z</time>
      </trkpt>
      <trkpt lat="47.89501" lon="-3.50774">
        <ele>82</ele>
        <time>2005-06-20T11:28:47Z</time>
      </trkpt>
      <trkpt lat="47.89502" lon="-3.50805">
        <ele>81</ele>
        <time>2005-06-20T11:28:47Z</time>
      </trkpt>
      <trkpt lat="47.89497" lon="-3.50824">
        <ele>81</ele>
        <time>2005-06-20T11:28:47Z</time>
      </trkpt>
      <trkpt lat="47.89457" lon="-3.50803">
        <ele>79</ele>
        <time>2005-06-20T11:28:47Z</time>
      </trkpt>
      <trkpt lat="47.89394" lon="-3.50776">
        <ele>75</ele>
        <time>2005-06-20T11:28:47Z</time>
      </trkpt>
      <trkpt lat="47.89352" lon="-3.50765">
        <ele>74</ele>
        <time>2005-06-20T11:28:47Z</time>
      </trkpt>
      <trkpt lat="47.89001" lon="-3.5063">
        <ele>61</ele>
        <time>2005-06-20T11:28:47Z</time>
      </trkpt>
      <trkpt lat="47.89041" lon="-3.50658">
        <ele>64</ele>
        <time>2005-06-20T11:28:47Z</time>
      </trkpt>
      <trkpt lat="47.89067" lon="-3.50711">
        <ele>67</ele>
        <time>2005-06-20T11:28:47Z</time>
      </trkpt>
      <trkpt lat="47.89055" lon="-3.50821">
        <ele>73</ele>
        <time>2005-06-20T11:28:47Z</time>
      </trkpt>
      <trkpt lat="47.89058" lon="-3.50858">
        <ele>75</ele>
        <time>2005-06-20T11:28:47Z</time>
      </trkpt>
      <trkpt lat="47.89183" lon="-3.51006">
        <ele>75</ele>
        <time>2005-06-20T11:28:47Z</time>
      </trkpt>
      <trkpt lat="47.89202" lon="-3.51078">
        <ele>77</ele>
        <time>2005-06-20T11:28:47Z</time>
      </trkpt>
      <trkpt lat="47.89199" lon="-3.51269">
        <ele>74</ele>
        <time>2005-06-20T11:28:47Z</time>
      </trkpt>
      <trkpt lat="47.89186" lon="-3.51492">
        <ele>71</ele>
        <time>2005-06-20T11:28:47Z</time>
      </trkpt>
      <trkpt lat="47.89044" lon="-3.5149">
        <ele>71</ele>
        <time>2005-06-20T11:28:47Z</time>
      </trkpt>
      <trkpt lat="47.89007" lon="-3.51506">
        <ele>69</ele>
        <time>2005-06-20T11:28:47Z</time>
      </trkpt>
      <trkpt lat="47.88936" lon="-3.51622">
        <ele>63</ele>
        <time>2005-06-20T11:28:47Z</time>
      </trkpt>
      <trkpt lat="47.88911" lon="-3.51586">
        <ele>63</ele>
        <time>2005-06-20T11:28:47Z</time>
      </trkpt>
      <trkpt lat="47.88866" lon="-3.51584">
        <ele>65</ele>
        <time>2005-06-20T11:28:47Z</time>
      </trkpt>
      <trkpt lat="47.88855" lon="-3.51618">
        <ele>65</ele>
        <time>2005-06-20T11:28:47Z</time>
      </trkpt>
      <trkpt lat="47.8885" lon="-3.51666">
        <ele>64</ele>
        <time>2005-06-20T11:28:47Z</time>
      </trkpt>
      <trkpt lat="47.88843" lon="-3.517">
        <ele>63</ele>
        <time>2005-06-20T11:28:47Z</time>
      </trkpt>
      <trkpt lat="47.88836" lon="-3.51745">
        <ele>61</ele>
        <time>2005-06-20T11:28:47Z</time>
      </trkpt>
      <trkpt lat="47.88845" lon="-3.51784">
        <ele>58</ele>
        <time>2005-06-20T11:28:47Z</time>
      </trkpt>
      <trkpt lat="47.8881" lon="-3.51791">
        <ele>57</ele>
        <time>2005-06-20T11:28:47Z</time>
      </trkpt>
      <trkpt lat="47.88782" lon="-3.51808">
        <ele>54</ele>
        <time>2005-06-20T11:28:47Z</time>
      </trkpt>
      <trkpt lat="47.88791" lon="-3.51837">
        <ele>51</ele>
        <time>2005-06-20T11:28:47Z</time>
      </trkpt>
      <trkpt lat="47.88792" lon="-3.51862">
        <ele>49</ele>
        <time>2005-06-20T11:28:47Z</time>
      </trkpt>
      <trkpt lat="47.88794" lon="-3.51891">
        <ele>47</ele>
        <time>2005-06-20T11:28:47Z</time>
      </trkpt>
      <trkpt lat="47.88816" lon="-3.51914">
        <ele>46</ele>
        <time>2005-06-20T11:28:47Z</time>
      </trkpt>
      <trkpt lat="47.88812" lon="-3.51955">
        <ele>46</ele>
        <time>2005-06-20T11:28:47Z</time>
      </trkpt>
      <trkpt lat="47.88812" lon="-3.5199">
        <ele>48</ele>
        <time>2005-06-20T11:28:47Z</time>
      </trkpt>
      <trkpt lat="47.88791" lon="-3.52011">
        <ele>48</ele>
        <time>2005-06-20T11:28:47Z</time>
      </trkpt>
      <trkpt lat="47.88788" lon="-3.52029">
        <ele>50</ele>
        <time>2005-06-20T11:28:47Z</time>
      </trkpt>
      <trkpt lat="47.8882" lon="-3.5209">
        <ele>59</ele>
        <time>2005-06-20T11:28:47Z</time>
      </trkpt>
      <trkpt lat="47.88842" lon="-3.52156">
        <ele>62</ele>
        <time>2005-06-20T11:28:47Z</time>
      </trkpt>
      <trkpt lat="47.88854" lon="-3.52214">
        <ele>64</ele>
        <time>2005-06-20T11:28:47Z</time>
      </trkpt>
      <trkpt lat="47.88876" lon="-3.5223">
        <ele>65</ele>
        <time>2005-06-20T11:28:47Z</time>
      </trkpt>
      <trkpt lat="47.88901" lon="-3.52221">
        <ele>65</ele>
        <time>2005-06-20T11:28:47Z</time>
      </trkpt>
      <trkpt lat="47.88919" lon="-3.52223">
        <ele>64</ele>
        <time>2005-06-20T11:28:47Z</time>
      </trkpt>
      <trkpt lat="47.88934" lon="-3.52238">
        <ele>63</ele>
        <time>2005-06-20T11:28:47Z</time>
      </trkpt>
      <trkpt lat="47.88934" lon="-3.52238">
        <ele>63</ele>
        <time>2005-06-20T11:28:47Z</time>
      </trkpt>
      <trkpt lat="47.88935" lon="-3.52275">
        <ele>64</ele>
        <time>2005-06-20T11:28:47Z</time>
      </trkpt>
      <trkpt lat="47.88947" lon="-3.5229">
        <ele>64</ele>
        <time>2005-06-20T11:28:47Z</time>
      </trkpt>
      <trkpt lat="47.88931" lon="-3.52365">
        <ele>69</ele>
        <time>2005-06-20T11:28:47Z</time>
      </trkpt>
      <trkpt lat="47.8893" lon="-3.52397">
        <ele>71</ele>
        <time>2005-06-20T11:28:47Z</time>
      </trkpt>
      <trkpt lat="47.88917" lon="-3.52438">
        <ele>72</ele>
        <time>2005-06-20T11:28:47Z</time>
      </trkpt>
      <trkpt lat="47.88898" lon="-3.52508">
        <ele>72</ele>
        <time>2005-06-20T11:28:47Z</time>
      </trkpt>
      <trkpt lat="47.88895" lon="-3.52539">
        <ele>72</ele>
        <time>2005-06-20T11:28:47Z</time>
      </trkpt>
      <trkpt lat="47.88899" lon="-3.52623">
        <ele>73</ele>
        <time>2005-06-20T11:28:47Z</time>
      </trkpt>
      <trkpt lat="47.88905" lon="-3.5275">
        <ele>75</ele>
        <time>2005-06-20T11:28:47Z</time>
      </trkpt>
      <trkpt lat="47.88902" lon="-3.52853">
        <ele>75</ele>
        <time>2005-06-20T11:28:47Z</time>
      </trkpt>
      <trkpt lat="47.88904" lon="-3.52952">
        <ele>74</ele>
        <time>2005-06-20T11:28:47Z</time>
      </trkpt>
      <trkpt lat="47.8891" lon="-3.53024">
        <ele>74</ele>
        <time>2005-06-20T11:28:47Z</time>
      </trkpt>
      <trkpt lat="47.8896" lon="-3.53083">
        <ele>77</ele>
        <time>2005-06-20T11:28:47Z</time>
      </trkpt>
      <trkpt lat="47.89017" lon="-3.53164">
        <ele>79</ele>
        <time>2005-06-20T11:28:47Z</time>
      </trkpt>
      <trkpt lat="47.89052" lon="-3.53214">
        <ele>79</ele>
        <time>2005-06-20T11:28:47Z</time>
      </trkpt>
      <trkpt lat="47.89105" lon="-3.53208">
        <ele>83</ele>
        <time>2005-06-20T11:28:47Z</time>
      </trkpt>
      <trkpt lat="47.89161" lon="-3.53214">
        <ele>86</ele>
        <time>2005-06-20T11:28:47Z</time>
      </trkpt>
      <trkpt lat="47.89243" lon="-3.53228">
        <ele>88</ele>
        <time>2005-06-20T11:28:47Z</time>
      </trkpt>
      <trkpt lat="47.89311" lon="-3.53246">
        <ele>88</ele>
        <time>2005-06-20T11:28:47Z</time>
      </trkpt>
      <trkpt lat="47.89395" lon="-3.53253">
        <ele>86</ele>
        <time>2005-06-20T11:28:47Z</time>
      </trkpt>
      <trkpt lat="47.89395" lon="-3.53253">
        <ele>86</ele>
        <time>2005-06-20T11:28:47Z</time>
      </trkpt>
      <trkpt lat="47.89378" lon="-3.53314">
        <ele>86</ele>
        <time>2005-06-20T11:28:47Z</time>
      </trkpt>
      <trkpt lat="47.89365" lon="-3.53352">
        <ele>86</ele>
        <time>2005-06-20T11:28:47Z</time>
      </trkpt>
      <trkpt lat="47.89354" lon="-3.53368">
        <ele>86</ele>
        <time>2005-06-20T11:28:47Z</time>
      </trkpt>
      <trkpt lat="47.89329" lon="-3.53437">
        <ele>88</ele>
        <time>2005-06-20T11:28:47Z</time>
      </trkpt>
      <trkpt lat="47.89308" lon="-3.53502">
        <ele>87</ele>
        <time>2005-06-20T11:28:47Z</time>
      </trkpt>
      <trkpt lat="47.8929" lon="-3.53548">
        <ele>87</ele>
        <time>2005-06-20T11:28:47Z</time>
      </trkpt>
      <trkpt lat="47.89283" lon="-3.53573">
        <ele>86</ele>
        <time>2005-06-20T11:28:47Z</time>
      </trkpt>
      <trkpt lat="47.89281" lon="-3.53638">
        <ele>85</ele>
        <time>2005-06-20T11:28:47Z</time>
      </trkpt>
      <trkpt lat="47.89274" lon="-3.53724">
        <ele>84</ele>
        <time>2005-06-20T11:28:47Z</time>
      </trkpt>
      <trkpt lat="47.89257" lon="-3.53758">
        <ele>82</ele>
        <time>2005-06-20T11:28:47Z</time>
      </trkpt>
      <trkpt lat="47.89246" lon="-3.53854">
        <ele>81</ele>
        <time>2005-06-20T11:28:47Z</time>
      </trkpt>
      <trkpt lat="47.89243" lon="-3.53945">
        <ele>79</ele>
        <time>2005-06-20T11:28:47Z</time>
      </trkpt>
      <trkpt lat="47.89234" lon="-3.54002">
        <ele>77</ele>
        <time>2005-06-20T11:28:47Z</time>
      </trkpt>
      <trkpt lat="47.89227" lon="-3.54101">
        <ele>73</ele>
        <time>2005-06-20T11:28:47Z</time>
      </trkpt>
      <trkpt lat="47.89249" lon="-3.54112">
        <ele>73</ele>
        <time>2005-06-20T11:28:47Z</time>
      </trkpt>
      <trkpt lat="47.89295" lon="-3.54122">
        <ele>74</ele>
        <time>2005-06-20T11:28:47Z</time>
      </trkpt>
      <trkpt lat="47.89345" lon="-3.54136">
        <ele>74</ele>
        <time>2005-06-20T11:28:47Z</time>
      </trkpt>
      <trkpt lat="47.89385" lon="-3.54147">
        <ele>73</ele>
        <time>2005-06-20T11:28:47Z</time>
      </trkpt>
      <trkpt lat="47.89422" lon="-3.54165">
        <ele>71</ele>
        <time>2005-06-20T11:28:47Z</time>
      </trkpt>
      <trkpt lat="47.8944" lon="-3.54095">
        <ele>72</ele>
        <time>2005-06-20T11:28:47Z</time>
      </trkpt>
      <trkpt lat="47.89461" lon="-3.53997">
        <ele>76</ele>
        <time>2005-06-20T11:28:47Z</time>
      </trkpt>
      <trkpt lat="47.89477" lon="-3.5393">
        <ele>77</ele>
        <time>2005-06-20T11:28:47Z</time>
      </trkpt>
      <trkpt lat="47.89494" lon="-3.53843">
        <ele>79</ele>
        <time>2005-06-20T11:28:47Z</time>
      </trkpt>
      <trkpt lat="47.89497" lon="-3.5382">
        <ele>80</ele>
        <time>2005-06-20T11:28:47Z</time>
      </trkpt>
      <trkpt lat="47.8953" lon="-3.53827">
        <ele>79</ele>
        <time>2005-06-20T11:28:47Z</time>
      </trkpt>
      <trkpt lat="47.89561" lon="-3.5385">
        <ele>79</ele>
        <time>2005-06-20T11:28:47Z</time>
      </trkpt>
      <trkpt lat="47.89637" lon="-3.53889">
        <ele>81</ele>
        <time>2005-06-20T11:28:47Z</time>
      </trkpt>
      <trkpt lat="47.89686" lon="-3.53908">
        <ele>84</ele>
        <time>2005-06-20T11:28:47Z</time>
      </trkpt>
      <trkpt lat="47.89731" lon="-3.53903">
        <ele>87</ele>
        <time>2005-06-20T11:28:47Z</time>
      </trkpt>
      <trkpt lat="47.89772" lon="-3.53919">
        <ele>88</ele>
        <time>2005-06-20T11:28:47Z</time>
      </trkpt>
      <trkpt lat="47.89823" lon="-3.5393">
        <ele>88</ele>
        <time>2005-06-20T11:28:47Z</time>
      </trkpt>
      <trkpt lat="47.89861" lon="-3.53929">
        <ele>87</ele>
        <time>2005-06-20T11:28:47Z</time>
      </trkpt>
      <trkpt lat="47.89896" lon="-3.53929">
        <ele>84</ele>
        <time>2005-06-20T11:28:47Z</time>
      </trkpt>
      <trkpt lat="47.89899" lon="-3.5393">
        <ele>85.1</ele>
      </trkpt>
      <trkpt lat="47.89919" lon="-3.53922">
        <ele>82.9</ele>
      </trkpt>
      <trkpt lat="47.89947" lon="-3.53797">
        <ele>86</ele>
      </trkpt>
      <trkpt lat="47.89969" lon="-3.53707">
        <ele>86.9</ele>
      </trkpt>
      <trkpt lat="47.89977" lon="-3.53609">
        <ele>88.3</ele>
      </trkpt>
      <trkpt lat="47.89971" lon="-3.53539">
        <ele>91</ele>
      </trkpt>
      <trkpt lat="47.89957" lon="-3.53475">
        <ele>91.1</ele>
      </trkpt>
      <trkpt lat="47.89944" lon="-3.53463">
        <ele>92</ele>
      </trkpt>
      <trkpt lat="47.89959" lon="-3.53343">
        <ele>91.2</ele>
      </trkpt>
      <trkpt lat="47.89971" lon="-3.53345">
        <ele>90.5</ele>
      </trkpt>
      <trkpt lat="47.90134" lon="-3.53596">
        <ele>75.1</ele>
      </trkpt>
      <trkpt lat="47.90159" lon="-3.53635">
        <ele>71.5</ele>
      </trkpt>
      <trkpt lat="47.90169" lon="-3.53692">
        <ele>68</ele>
      </trkpt>
      <trkpt lat="47.9015" lon="-3.53822">
        <ele>59.8</ele>
      </trkpt>
      <trkpt lat="47.90146" lon="-3.53865">
        <ele>57.4</ele>
      </trkpt>
      <trkpt lat="47.90177" lon="-3.53895">
        <ele>53.4</ele>
      </trkpt>
      <trkpt lat="47.90206" lon="-3.53927">
        <ele>49.2</ele>
      </trkpt>
      <trkpt lat="47.90215" lon="-3.53985">
        <ele>45.8</ele>
      </trkpt>
      <trkpt lat="47.90205" lon="-3.54102">
        <ele>43.3</ele>
      </trkpt>
      <trkpt lat="47.90193" lon="-3.54265">
        <ele>40.6</ele>
      </trkpt>
      <trkpt lat="47.9019" lon="-3.54395">
        <ele>40</ele>
      </trkpt>
      <trkpt lat="47.90196" lon="-3.54448">
        <ele>36.4</ele>
      </trkpt>
      <trkpt lat="47.90159" lon="-3.54612">
        <ele>24.6</ele>
      </trkpt>
      <trkpt lat="47.90131" lon="-3.54703">
        <ele>18.4</ele>
      </trkpt>
      <trkpt lat="47.90119" lon="-3.54759">
        <ele>12.9</ele>
      </trkpt>
      <trkpt lat="47.90114" lon="-3.54785">
        <ele>12.5</ele>
      </trkpt>
      <trkpt lat="47.90067" lon="-3.54792">
        <ele>14.8</ele>
      </trkpt>
      <trkpt lat="47.90003" lon="-3.54763">
        <ele>13.7</ele>
      </trkpt>
      <trkpt lat="47.89965" lon="-3.54759">
        <ele>17.1</ele>
      </trkpt>
      <trkpt lat="47.89894" lon="-3.5474">
        <ele>15.5</ele>
      </trkpt>
      <trkpt lat="47.89833" lon="-3.54749">
        <ele>13.9</ele>
      </trkpt>
      <trkpt lat="47.89716" lon="-3.54782">
        <ele>15.1</ele>
      </trkpt>
      <trkpt lat="47.895" lon="-3.54764">
        <ele>19</ele>
      </trkpt>
      <trkpt lat="47.89338" lon="-3.54748">
        <ele>12.7</ele>
      </trkpt>
      <trkpt lat="47.89206" lon="-3.54836">
        <ele>32.6</ele>
      </trkpt>
      <trkpt lat="47.89106" lon="-3.54892">
        <ele>43.4</ele>
      </trkpt>
      <trkpt lat="47.89104" lon="-3.54915">
        <ele>47.1</ele>
      </trkpt>
      <trkpt lat="47.89249" lon="-3.54961">
        <ele>62.5</ele>
      </trkpt>
      <trkpt lat="47.89247" lon="-3.55149">
        <ele>63.2</ele>
      </trkpt>
      <trkpt lat="47.8932" lon="-3.55184">
        <ele>70.4</ele>
      </trkpt>
      <trkpt lat="47.89359" lon="-3.55263">
        <ele>70.9</ele>
      </trkpt>
      <trkpt lat="47.89464" lon="-3.55322">
        <ele>74.3</ele>
      </trkpt>
      <trkpt lat="47.89471" lon="-3.55413">
        <ele>77.3</ele>
      </trkpt>
      <trkpt lat="47.89351" lon="-3.55457">
        <ele>64.4</ele>
      </trkpt>
      <trkpt lat="47.89302" lon="-3.55488">
        <ele>62.1</ele>
      </trkpt>
      <trkpt lat="47.89232" lon="-3.55472">
        <ele>55.7</ele>
      </trkpt>
      <trkpt lat="47.89193" lon="-3.55513">
        <ele>52.2</ele>
      </trkpt>
      <trkpt lat="47.8916" lon="-3.55626">
        <ele>53.9</ele>
      </trkpt>
      <trkpt lat="47.89118" lon="-3.55652">
        <ele>52.2</ele>
      </trkpt>
      <trkpt lat="47.89081" lon="-3.5555">
        <ele>53</ele>
      </trkpt>
      <trkpt lat="47.8908" lon="-3.55773">
        <ele>57.1</ele>
      </trkpt>
      <trkpt lat="47.89063" lon="-3.55847">
        <ele>62.2</ele>
      </trkpt>
      <trkpt lat="47.89114" lon="-3.56052">
        <ele>64.8</ele>
      </trkpt>
      <trkpt lat="47.89157" lon="-3.56074">
        <ele>65.2</ele>
      </trkpt>
      <trkpt lat="47.89251" lon="-3.5584">
        <ele>73.4</ele>
      </trkpt>
      <trkpt lat="47.89319" lon="-3.55779">
        <ele>79.4</ele>
      </trkpt>
      <trkpt lat="47.89425" lon="-3.55728">
        <ele>85.3</ele>
      </trkpt>
      <trkpt lat="47.89519" lon="-3.55689">
        <ele>86.7</ele>
      </trkpt>
      <trkpt lat="47.89662" lon="-3.55684">
        <ele>84.2</ele>
      </trkpt>
      <trkpt lat="47.89715" lon="-3.5575">
        <ele>84</ele>
      </trkpt>
      <trkpt lat="47.89819" lon="-3.55796">
        <ele>87.6</ele>
      </trkpt>
      <trkpt lat="47.89815" lon="-3.563">
        <ele>92.3</ele>
      </trkpt>
      <trkpt lat="47.89924" lon="-3.56336">
        <ele>95.2</ele>
      </trkpt>
      <trkpt lat="47.9" lon="-3.56418">
        <ele>97</ele>
      </trkpt>
      <trkpt lat="47.90084" lon="-3.56484">
        <ele>95</ele>
      </trkpt>
      <trkpt lat="47.90059" lon="-3.56765">
        <ele>93.9</ele>
      </trkpt>
      <trkpt lat="47.90018" lon="-3.57119">
        <ele>82.8</ele>
      </trkpt>
      <trkpt lat="47.90367" lon="-3.57669">
        <ele>92</ele>
        <time>2006-02-14T16:22:24Z</time>
      </trkpt>
      <trkpt lat="47.9038" lon="-3.57662">
        <ele>93</ele>
        <time>2006-02-14T16:22:24Z</time>
      </trkpt>
      <trkpt lat="47.90403" lon="-3.57662">
        <ele>93</ele>
        <time>2006-02-14T16:22:24Z</time>
      </trkpt>
      <trkpt lat="47.90445" lon="-3.57666">
        <ele>94</ele>
        <time>2006-02-14T16:22:24Z</time>
      </trkpt>
      <trkpt lat="47.90455" lon="-3.57648">
        <ele>94</ele>
        <time>2006-02-14T16:22:24Z</time>
      </trkpt>
      <trkpt lat="47.90467" lon="-3.57618">
        <ele>93</ele>
        <time>2006-02-14T16:22:24Z</time>
      </trkpt>
      <trkpt lat="47.90485" lon="-3.57626">
        <ele>93</ele>
        <time>2006-02-14T16:22:24Z</time>
      </trkpt>
      <trkpt lat="47.905" lon="-3.57641">
        <ele>93</ele>
        <time>2006-02-14T16:22:24Z</time>
      </trkpt>
      <trkpt lat="47.90517" lon="-3.57654">
        <ele>94</ele>
        <time>2006-02-14T16:22:24Z</time>
      </trkpt>
      <trkpt lat="47.90534" lon="-3.57663">
        <ele>94</ele>
        <time>2006-02-14T16:22:24Z</time>
      </trkpt>
      <trkpt lat="47.90545" lon="-3.57678">
        <ele>95</ele>
        <time>2006-02-14T16:22:24Z</time>
      </trkpt>
      <trkpt lat="47.9055" lon="-3.57692">
        <ele>95</ele>
        <time>2006-02-14T16:22:24Z</time>
      </trkpt>
      <trkpt lat="47.9055" lon="-3.57706">
        <ele>95</ele>
        <time>2006-02-14T16:22:24Z</time>
      </trkpt>
      <trkpt lat="47.90543" lon="-3.57737">
        <ele>96</ele>
        <time>2006-02-14T16:22:24Z</time>
      </trkpt>
      <trkpt lat="47.90531" lon="-3.57771">
        <ele>96</ele>
        <time>2006-02-14T16:22:24Z</time>
      </trkpt>
      <trkpt lat="47.90522" lon="-3.57808">
        <ele>96</ele>
        <time>2006-02-14T16:22:24Z</time>
      </trkpt>
      <trkpt lat="47.90512" lon="-3.57844">
        <ele>95</ele>
        <time>2006-02-14T16:22:24Z</time>
      </trkpt>
      <trkpt lat="47.90502" lon="-3.57875">
        <ele>95</ele>
        <time>2006-02-14T16:22:24Z</time>
      </trkpt>
      <trkpt lat="47.90498" lon="-3.57913">
        <ele>94</ele>
        <time>2006-02-14T16:22:24Z</time>
      </trkpt>
      <trkpt lat="47.90496" lon="-3.57955">
        <ele>94</ele>
        <time>2006-02-14T16:22:24Z</time>
      </trkpt>
      <trkpt lat="47.90494" lon="-3.57993">
        <ele>93</ele>
        <time>2006-02-14T16:22:24Z</time>
      </trkpt>
      <trkpt lat="47.90493" lon="-3.58031">
        <ele>93</ele>
        <time>2006-02-14T16:22:24Z</time>
      </trkpt>
      <trkpt lat="47.90501" lon="-3.58074">
        <ele>93</ele>
        <time>2006-02-14T16:22:24Z</time>
      </trkpt>
      <trkpt lat="47.90508" lon="-3.58123">
        <ele>92</ele>
        <time>2006-02-14T16:22:24Z</time>
      </trkpt>
      <trkpt lat="47.90511" lon="-3.58158">
        <ele>92</ele>
        <time>2006-02-14T16:22:24Z</time>
      </trkpt>
      <trkpt lat="47.90515" lon="-3.58205">
        <ele>91</ele>
        <time>2006-02-14T16:22:24Z</time>
      </trkpt>
      <trkpt lat="47.90518" lon="-3.58256">
        <ele>90</ele>
        <time>2006-02-14T16:22:24Z</time>
      </trkpt>
      <trkpt lat="47.90519" lon="-3.58295">
        <ele>89</ele>
        <time>2006-02-14T16:22:24Z</time>
      </trkpt>
      <trkpt lat="47.90525" lon="-3.58348">
        <ele>87</ele>
        <time>2006-02-14T16:22:24Z</time>
      </trkpt>
      <trkpt lat="47.90527" lon="-3.58381">
        <ele>86</ele>
        <time>2006-02-14T16:22:24Z</time>
      </trkpt>
      <trkpt lat="47.9053" lon="-3.58431">
        <ele>85</ele>
        <time>2006-02-14T16:22:24Z</time>
      </trkpt>
      <trkpt lat="47.90531" lon="-3.58469">
        <ele>84</ele>
        <time>2006-02-14T16:22:24Z</time>
      </trkpt>
      <trkpt lat="47.9053" lon="-3.58507">
        <ele>84</ele>
        <time>2006-02-14T16:22:24Z</time>
      </trkpt>
      <trkpt lat="47.90544" lon="-3.58502">
        <ele>84</ele>
        <time>2006-02-14T16:22:24Z</time>
      </trkpt>
      <trkpt lat="47.90575" lon="-3.58507">
        <ele>85</ele>
        <time>2006-02-14T16:22:24Z</time>
      </trkpt>
      <trkpt lat="47.90588" lon="-3.58472">
        <ele>85</ele>
        <time>2006-02-14T16:22:24Z</time>
      </trkpt>
      <trkpt lat="47.90616" lon="-3.58475">
        <ele>86</ele>
        <time>2006-02-14T16:22:24Z</time>
      </trkpt>
      <trkpt lat="47.90641" lon="-3.58482">
        <ele>88</ele>
        <time>2006-02-14T16:22:24Z</time>
      </trkpt>
      <trkpt lat="47.90661" lon="-3.58487">
        <ele>89</ele>
        <time>2006-02-14T16:22:24Z</time>
      </trkpt>
      <trkpt lat="47.90695" lon="-3.5849">
        <ele>90</ele>
        <time>2006-02-14T16:22:24Z</time>
      </trkpt>
      <trkpt lat="47.90752" lon="-3.58506">
        <ele>90</ele>
        <time>2006-02-14T16:22:24Z</time>
      </trkpt>
      <trkpt lat="47.9077" lon="-3.58492">
        <ele>89</ele>
        <time>2006-02-14T16:22:24Z</time>
      </trkpt>
      <trkpt lat="47.9077" lon="-3.58492">
        <ele>89</ele>
        <time>2006-02-14T16:22:24Z</time>
      </trkpt>
      <trkpt lat="47.90785" lon="-3.58484">
        <ele>89</ele>
        <time>2006-02-14T16:22:24Z</time>
      </trkpt>
      <trkpt lat="47.9081" lon="-3.5847">
        <ele>87</ele>
        <time>2006-02-14T16:22:24Z</time>
      </trkpt>
      <trkpt lat="47.9083" lon="-3.58456">
        <ele>86</ele>
        <time>2006-02-14T16:22:24Z</time>
      </trkpt>
      <trkpt lat="47.90854" lon="-3.58446">
        <ele>86</ele>
        <time>2006-02-14T16:22:24Z</time>
      </trkpt>
      <trkpt lat="47.90879" lon="-3.58434">
        <ele>85</ele>
        <time>2006-02-14T16:22:24Z</time>
      </trkpt>
      <trkpt lat="47.909" lon="-3.58426">
        <ele>85</ele>
        <time>2006-02-14T16:22:24Z</time>
      </trkpt>
      <trkpt lat="47.90924" lon="-3.58418">
        <ele>84</ele>
        <time>2006-02-14T16:22:24Z</time>
      </trkpt>
      <trkpt lat="47.9095" lon="-3.58409">
        <ele>84</ele>
        <time>2006-02-14T16:22:24Z</time>
      </trkpt>
      <trkpt lat="47.90966" lon="-3.58406">
        <ele>84</ele>
        <time>2006-02-14T16:22:24Z</time>
      </trkpt>
      <trkpt lat="47.90963" lon="-3.58387">
        <ele>84</ele>
        <time>2006-02-14T16:22:24Z</time>
      </trkpt>
      <trkpt lat="47.90961" lon="-3.58353">
        <ele>85</ele>
        <time>2006-02-14T16:22:24Z</time>
      </trkpt>
      <trkpt lat="47.90959" lon="-3.58322">
        <ele>85</ele>
        <time>2006-02-14T16:22:24Z</time>
      </trkpt>
      <trkpt lat="47.90959" lon="-3.58294">
        <ele>85</ele>
        <time>2006-02-14T16:22:24Z</time>
      </trkpt>
      <trkpt lat="47.90991" lon="-3.58314">
        <ele>85</ele>
        <time>2006-02-14T16:22:24Z</time>
      </trkpt>
      <trkpt lat="47.91003" lon="-3.58327">
        <ele>85</ele>
        <time>2006-02-14T16:22:24Z</time>
      </trkpt>
      <trkpt lat="47.91023" lon="-3.58343">
        <ele>85</ele>
        <time>2006-02-14T16:22:24Z</time>
      </trkpt>
      <trkpt lat="47.91039" lon="-3.58358">
        <ele>85</ele>
        <time>2006-02-14T16:22:24Z</time>
      </trkpt>
      <trkpt lat="47.91072" lon="-3.58382">
        <ele>85</ele>
        <time>2006-02-14T16:22:24Z</time>
      </trkpt>
      <trkpt lat="47.91103" lon="-3.58357">
        <ele>86</ele>
        <time>2006-02-14T16:22:24Z</time>
      </trkpt>
      <trkpt lat="47.91148" lon="-3.58335">
        <ele>88</ele>
        <time>2006-02-14T16:22:24Z</time>
      </trkpt>
      <trkpt lat="47.91196" lon="-3.58327">
        <ele>90</ele>
        <time>2006-02-14T16:22:24Z</time>
      </trkpt>
      <trkpt lat="47.91215" lon="-3.58325">
        <ele>91</ele>
        <time>2006-02-14T16:22:24Z</time>
      </trkpt>
      <trkpt lat="47.91233" lon="-3.58297">
        <ele>91</ele>
        <time>2006-02-14T16:22:24Z</time>
      </trkpt>
      <trkpt lat="47.9123" lon="-3.58247">
        <ele>92</ele>
        <time>2006-02-14T16:22:24Z</time>
      </trkpt>
      <trkpt lat="47.91229" lon="-3.58208">
        <ele>92</ele>
        <time>2006-02-14T16:22:24Z</time>
      </trkpt>
      <trkpt lat="47.91227" lon="-3.58156">
        <ele>91</ele>
        <time>2006-02-14T16:22:24Z</time>
      </trkpt>
      <trkpt lat="47.91228" lon="-3.58102">
        <ele>91</ele>
        <time>2006-02-14T16:22:24Z</time>
      </trkpt>
      <trkpt lat="47.91229" lon="-3.58052">
        <ele>91</ele>
        <time>2006-02-14T16:22:24Z</time>
      </trkpt>
      <trkpt lat="47.9123" lon="-3.58009">
        <ele>91</ele>
        <time>2006-02-14T16:22:24Z</time>
      </trkpt>
      <trkpt lat="47.9123" lon="-3.57962">
        <ele>90</ele>
        <time>2006-02-14T16:22:24Z</time>
      </trkpt>
      <trkpt lat="47.91232" lon="-3.5793">
        <ele>90</ele>
        <time>2006-02-14T16:22:24Z</time>
      </trkpt>
      <trkpt lat="47.91234" lon="-3.57903">
        <ele>89</ele>
        <time>2006-02-14T16:22:24Z</time>
      </trkpt>
      <trkpt lat="47.91249" lon="-3.5785">
        <ele>89</ele>
        <time>2006-02-14T16:22:24Z</time>
      </trkpt>
      <trkpt lat="47.91264" lon="-3.57807">
        <ele>89</ele>
        <time>2006-02-14T16:22:24Z</time>
      </trkpt>
      <trkpt lat="47.9128" lon="-3.57762">
        <ele>89</ele>
        <time>2006-02-14T16:22:24Z</time>
      </trkpt>
      <trkpt lat="47.91294" lon="-3.57723">
        <ele>89</ele>
        <time>2006-02-14T16:22:24Z</time>
      </trkpt>
      <trkpt lat="47.9131" lon="-3.57684">
        <ele>90</ele>
        <time>2006-02-14T16:22:24Z</time>
      </trkpt>
      <trkpt lat="47.91321" lon="-3.57652">
        <ele>92</ele>
        <time>2006-02-14T16:22:24Z</time>
      </trkpt>
      <trkpt lat="47.91337" lon="-3.5761">
        <ele>93</ele>
        <time>2006-02-14T16:22:24Z</time>
      </trkpt>
      <trkpt lat="47.91345" lon="-3.57568">
        <ele>93</ele>
        <time>2006-02-14T16:22:24Z</time>
      </trkpt>
      <trkpt lat="47.91351" lon="-3.57534">
        <ele>93</ele>
        <time>2006-02-14T16:22:24Z</time>
      </trkpt>
      <trkpt lat="47.91354" lon="-3.57484">
        <ele>93</ele>
        <time>2006-02-14T16:22:24Z</time>
      </trkpt>
      <trkpt lat="47.91358" lon="-3.57399">
        <ele>91</ele>
        <time>2006-02-14T16:22:24Z</time>
      </trkpt>
      <trkpt lat="47.91358" lon="-3.57399">
        <ele>91</ele>
        <time>2006-02-14T16:22:24Z</time>
      </trkpt>
      <trkpt lat="47.91387" lon="-3.57377">
        <ele>92</ele>
        <time>2006-02-14T16:22:24Z</time>
      </trkpt>
      <trkpt lat="47.91435" lon="-3.57366">
        <ele>90</ele>
        <time>2006-02-14T16:22:24Z</time>
      </trkpt>
      <trkpt lat="47.91487" lon="-3.57375">
        <ele>81</ele>
        <time>2006-02-14T16:22:24Z</time>
      </trkpt>
      <trkpt lat="47.91533" lon="-3.57383">
        <ele>73</ele>
        <time>2006-02-14T16:22:24Z</time>
      </trkpt>
      <trkpt lat="47.91578" lon="-3.57388">
        <ele>66</ele>
        <time>2006-02-14T16:22:24Z</time>
      </trkpt>
      <trkpt lat="47.91613" lon="-3.57423">
        <ele>61</ele>
        <time>2006-02-14T16:22:24Z</time>
      </trkpt>
      <trkpt lat="47.91641" lon="-3.57446">
        <ele>57</ele>
        <time>2006-02-14T16:22:24Z</time>
      </trkpt>
      <trkpt lat="47.91703" lon="-3.57419">
        <ele>51</ele>
        <time>2006-02-14T16:22:24Z</time>
      </trkpt>
      <trkpt lat="47.91756" lon="-3.57395">
        <ele>45</ele>
        <time>2006-02-14T16:22:24Z</time>
      </trkpt>
      <trkpt lat="47.91791" lon="-3.57372">
        <ele>44</ele>
        <time>2006-02-14T16:22:24Z</time>
      </trkpt>
      <trkpt lat="47.9181" lon="-3.57307">
        <ele>37</ele>
        <time>2006-02-14T16:22:24Z</time>
      </trkpt>
      <trkpt lat="47.91825" lon="-3.57279">
        <ele>32</ele>
        <time>2006-02-14T16:22:24Z</time>
      </trkpt>
      <trkpt lat="47.91849" lon="-3.57295">
        <ele>31</ele>
        <time>2006-02-14T16:22:24Z</time>
      </trkpt>
      <trkpt lat="47.919" lon="-3.57277">
        <ele>24</ele>
        <time>2006-02-14T16:22:24Z</time>
      </trkpt>
      <trkpt lat="47.91868" lon="-3.57226">
        <ele>35</ele>
        <time>2006-02-14T16:22:24Z</time>
      </trkpt>
      <trkpt lat="47.91841" lon="-3.57197">
        <ele>41</ele>
        <time>2006-02-14T16:22:24Z</time>
      </trkpt>
      <trkpt lat="47.91824" lon="-3.57174">
        <ele>44</ele>
        <time>2006-02-14T16:22:24Z</time>
      </trkpt>
      <trkpt lat="47.91809" lon="-3.57159">
        <ele>47</ele>
        <time>2006-02-14T16:22:24Z</time>
      </trkpt>
      <trkpt lat="47.9181" lon="-3.57133">
        <ele>50</ele>
        <time>2006-02-14T16:22:24Z</time>
      </trkpt>
      <trkpt lat="47.91813" lon="-3.57113">
        <ele>51</ele>
        <time>2006-02-14T16:22:24Z</time>
      </trkpt>
      <trkpt lat="47.9181" lon="-3.57096">
        <ele>53</ele>
        <time>2006-02-14T16:22:24Z</time>
      </trkpt>
      <trkpt lat="47.91786" lon="-3.57066">
        <ele>57</ele>
        <time>2006-02-14T16:22:24Z</time>
      </trkpt>
      <trkpt lat="47.91825" lon="-3.57067">
        <ele>53</ele>
        <time>2006-02-14T16:22:24Z</time>
      </trkpt>
      <trkpt lat="47.91842" lon="-3.57039">
        <ele>52</ele>
        <time>2006-02-14T16:22:24Z</time>
      </trkpt>
      <trkpt lat="47.91844" lon="-3.56992">
        <ele>51</ele>
        <time>2006-02-14T16:22:24Z</time>
      </trkpt>
      <trkpt lat="47.9185" lon="-3.56969">
        <ele>49</ele>
        <time>2006-02-14T16:22:24Z</time>
      </trkpt>
      <trkpt lat="47.9187" lon="-3.56931">
        <ele>42</ele>
        <time>2006-02-14T16:22:24Z</time>
      </trkpt>
      <trkpt lat="47.91902" lon="-3.56959">
        <ele>38</ele>
        <time>2006-02-14T16:22:24Z</time>
      </trkpt>
      <trkpt lat="47.91929" lon="-3.56965">
        <ele>34</ele>
        <time>2006-02-14T16:22:24Z</time>
      </trkpt>
      <trkpt lat="47.91949" lon="-3.57017">
        <ele>35</ele>
        <time>2006-02-14T16:22:24Z</time>
      </trkpt>
      <trkpt lat="47.91988" lon="-3.57042">
        <ele>28</ele>
        <time>2006-02-14T16:22:24Z</time>
      </trkpt>
      <trkpt lat="47.92015" lon="-3.57008">
        <ele>24</ele>
        <time>2006-02-14T16:22:24Z</time>
      </trkpt>
      <trkpt lat="47.9205" lon="-3.56972">
        <ele>21</ele>
        <time>2006-02-14T16:22:24Z</time>
      </trkpt>
      <trkpt lat="47.92057" lon="-3.56936">
        <ele>21</ele>
        <time>2006-02-14T16:22:24Z</time>
      </trkpt>
      <trkpt lat="47.92066" lon="-3.5689">
        <ele>21</ele>
        <time>2006-02-14T16:22:24Z</time>
      </trkpt>
      <trkpt lat="47.9207" lon="-3.56857">
        <ele>22</ele>
        <time>2006-02-14T16:22:24Z</time>
      </trkpt>
      <trkpt lat="47.92051" lon="-3.56821">
        <ele>20</ele>
        <time>2006-02-14T16:22:24Z</time>
      </trkpt>
      <trkpt lat="47.92032" lon="-3.56799">
        <ele>21</ele>
        <time>2006-02-14T16:22:24Z</time>
      </trkpt>
      <trkpt lat="47.91996" lon="-3.56795">
        <ele>19</ele>
        <time>2006-02-14T16:22:24Z</time>
      </trkpt>
      <trkpt lat="47.91942" lon="-3.56802">
        <ele>19</ele>
        <time>2006-02-14T16:22:24Z</time>
      </trkpt>
      <trkpt lat="47.91908" lon="-3.56808">
        <ele>19</ele>
        <time>2006-02-14T16:22:24Z</time>
      </trkpt>
      <trkpt lat="47.91866" lon="-3.5678">
        <ele>20</ele>
        <time>2006-02-14T16:22:24Z</time>
      </trkpt>
      <trkpt lat="47.91849" lon="-3.56768">
        <ele>22</ele>
        <time>2006-02-14T16:22:24Z</time>
      </trkpt>
      <trkpt lat="47.91827" lon="-3.56742">
        <ele>22</ele>
        <time>2006-02-14T16:22:24Z</time>
      </trkpt>
      <trkpt lat="47.91821" lon="-3.56698">
        <ele>21</ele>
        <time>2006-02-14T16:22:24Z</time>
      </trkpt>
      <trkpt lat="47.91818" lon="-3.56657">
        <ele>20</ele>
        <time>2006-02-14T16:22:24Z</time>
      </trkpt>
      <trkpt lat="47.91822" lon="-3.56618">
        <ele>18</ele>
        <time>2006-02-14T16:22:24Z</time>
      </trkpt>
      <trkpt lat="47.91815" lon="-3.56587">
        <ele>18</ele>
        <time>2006-02-14T16:22:24Z</time>
      </trkpt>
      <trkpt lat="47.91803" lon="-3.56562">
        <ele>17</ele>
        <time>2006-02-14T16:22:24Z</time>
      </trkpt>
      <trkpt lat="47.91792" lon="-3.56514">
        <ele>16</ele>
        <time>2006-02-14T16:22:24Z</time>
      </trkpt>
      <trkpt lat="47.91771" lon="-3.56468">
        <ele>17</ele>
        <time>2006-02-14T16:22:24Z</time>
      </trkpt>
      <trkpt lat="47.91749" lon="-3.56412">
        <ele>17</ele>
        <time>2006-02-14T16:22:24Z</time>
      </trkpt>
      <trkpt lat="47.91714" lon="-3.56354">
        <ele>16</ele>
        <time>2006-02-14T16:22:24Z</time>
      </trkpt>
      <trkpt lat="47.91682" lon="-3.5631">
        <ele>17</ele>
        <time>2006-02-14T16:22:24Z</time>
      </trkpt>
      <trkpt lat="47.91647" lon="-3.56256">
        <ele>16</ele>
        <time>2006-02-14T16:22:24Z</time>
      </trkpt>
      <trkpt lat="47.9161" lon="-3.56181">
        <ele>16</ele>
        <time>2006-02-14T16:22:24Z</time>
      </trkpt>
      <trkpt lat="47.9157" lon="-3.5612">
        <ele>17</ele>
        <time>2006-02-14T16:22:24Z</time>
      </trkpt>
      <trkpt lat="47.91544" lon="-3.56057">
        <ele>16</ele>
        <time>2006-02-14T16:22:24Z</time>
      </trkpt>
      <trkpt lat="47.91506" lon="-3.55972">
        <ele>16</ele>
        <time>2006-02-14T16:22:24Z</time>
      </trkpt>
      <trkpt lat="47.91485" lon="-3.55943">
        <ele>20</ele>
        <time>2006-02-14T16:22:24Z</time>
      </trkpt>
      <trkpt lat="47.91465" lon="-3.55883">
        <ele>18</ele>
        <time>2006-02-14T16:22:24Z</time>
      </trkpt>
      <trkpt lat="47.91437" lon="-3.55816">
        <ele>18</ele>
        <time>2006-02-14T16:22:24Z</time>
      </trkpt>
      <trkpt lat="47.91412" lon="-3.55777">
        <ele>16</ele>
        <time>2006-02-14T16:22:24Z</time>
      </trkpt>
      <trkpt lat="47.91394" lon="-3.55731">
        <ele>14</ele>
        <time>2006-02-14T16:22:24Z</time>
      </trkpt>
      <trkpt lat="47.91352" lon="-3.5571">
        <ele>17</ele>
        <time>2006-02-14T16:22:24Z</time>
      </trkpt>
      <trkpt lat="47.91318" lon="-3.55706">
        <ele>19</ele>
        <time>2006-02-14T16:22:24Z</time>
      </trkpt>
      <trkpt lat="47.91245" lon="-3.55731">
        <ele>17</ele>
        <time>2006-02-14T16:22:24Z</time>
      </trkpt>
      <trkpt lat="47.91204" lon="-3.55743">
        <ele>15</ele>
        <time>2006-02-14T16:22:24Z</time>
      </trkpt>
      <trkpt lat="47.91165" lon="-3.55753">
        <ele>16</ele>
        <time>2006-02-14T16:22:24Z</time>
      </trkpt>
      <trkpt lat="47.91133" lon="-3.55762">
        <ele>21</ele>
        <time>2006-02-14T16:22:24Z</time>
      </trkpt>
      <trkpt lat="47.91113" lon="-3.55713">
        <ele>17</ele>
        <time>2006-02-14T16:22:24Z</time>
      </trkpt>
      <trkpt lat="47.91096" lon="-3.55648">
        <ele>24</ele>
        <time>2006-02-14T16:22:24Z</time>
      </trkpt>
      <trkpt lat="47.91079" lon="-3.55545">
        <ele>18</ele>
        <time>2006-02-14T16:22:24Z</time>
      </trkpt>
      <trkpt lat="47.91061" lon="-3.55486">
        <ele>24</ele>
        <time>2006-02-14T16:22:24Z</time>
      </trkpt>
      <trkpt lat="47.91046" lon="-3.55431">
        <ele>22</ele>
        <time>2006-02-14T16:22:24Z</time>
      </trkpt>
      <trkpt lat="47.91036" lon="-3.55399">
        <ele>20</ele>
        <time>2006-02-14T16:22:24Z</time>
      </trkpt>
      <trkpt lat="47.91009" lon="-3.55323">
        <ele>18</ele>
        <time>2006-02-14T16:22:24Z</time>
      </trkpt>
      <trkpt lat="47.90988" lon="-3.5528">
        <ele>19</ele>
        <time>2006-02-14T16:22:24Z</time>
      </trkpt>
      <trkpt lat="47.90949" lon="-3.55246">
        <ele>16</ele>
        <time>2006-02-14T16:22:24Z</time>
      </trkpt>
      <trkpt lat="47.908" lon="-3.55212">
        <ele>15</ele>
        <time>2006-02-14T16:22:24Z</time>
      </trkpt>
      <trkpt lat="47.90773" lon="-3.55206">
        <ele>16</ele>
        <time>2006-02-14T16:22:24Z</time>
      </trkpt>
      <trkpt lat="47.9073" lon="-3.55218">
        <ele>14</ele>
        <time>2006-02-14T16:22:24Z</time>
      </trkpt>
      <trkpt lat="47.90695" lon="-3.55241">
        <ele>17</ele>
        <time>2006-02-14T16:22:24Z</time>
      </trkpt>
      <trkpt lat="47.90665" lon="-3.55261">
        <ele>17</ele>
        <time>2006-02-14T16:22:24Z</time>
      </trkpt>
      <trkpt lat="47.90626" lon="-3.55266">
        <ele>15</ele>
        <time>2006-02-14T16:22:24Z</time>
      </trkpt>
      <trkpt lat="47.90598" lon="-3.55277">
        <ele>15</ele>
        <time>2006-02-14T16:22:24Z</time>
      </trkpt>
      <trkpt lat="47.90543" lon="-3.55251">
        <ele>14</ele>
        <time>2006-02-14T16:22:24Z</time>
      </trkpt>
      <trkpt lat="47.90507" lon="-3.5525">
        <ele>15</ele>
        <time>2006-02-14T16:22:24Z</time>
      </trkpt>
      <trkpt lat="47.90489" lon="-3.55201">
        <ele>15</ele>
        <time>2006-02-14T16:22:24Z</time>
      </trkpt>
      <trkpt lat="47.90494" lon="-3.55151">
        <ele>15</ele>
        <time>2006-02-14T16:22:24Z</time>
      </trkpt>
      <trkpt lat="47.90465" lon="-3.55101">
        <ele>15</ele>
        <time>2006-02-14T16:22:24Z</time>
      </trkpt>
      <trkpt lat="47.90456" lon="-3.5505">
        <ele>15</ele>
        <time>2006-02-14T16:22:24Z</time>
      </trkpt>
      <trkpt lat="47.90434" lon="-3.54997">
        <ele>16</ele>
        <time>2006-02-14T16:22:24Z</time>
      </trkpt>
      <trkpt lat="47.90413" lon="-3.54934">
        <ele>16</ele>
        <time>2006-02-14T16:22:24Z</time>
      </trkpt>
      <trkpt lat="47.90373" lon="-3.54869">
        <ele>16</ele>
        <time>2006-02-14T16:22:24Z</time>
      </trkpt>
      <trkpt lat="47.90334" lon="-3.54798">
        <ele>16</ele>
        <time>2006-02-14T16:22:24Z</time>
      </trkpt>
      <trkpt lat="47.90308" lon="-3.54772">
        <ele>16</ele>
        <time>2006-02-14T16:22:24Z</time>
      </trkpt>
      <trkpt lat="47.9029" lon="-3.54766">
        <ele>15</ele>
        <time>2006-02-14T16:22:24Z</time>
      </trkpt>
      <trkpt lat="47.90231" lon="-3.54776">
        <ele>16</ele>
        <time>2006-02-14T16:22:24Z</time>
      </trkpt>
      <trkpt lat="47.90124" lon="-3.54803">
        <ele>16</ele>
        <time>2006-02-14T16:22:24Z</time>
      </trkpt>
      <trkpt lat="47.90112" lon="-3.54802">
        <ele>13.7</ele>
      </trkpt>
    </trkseg>
  </trk>
</gpx>